CARTOSAT-2F

Last updated on Mon Sep 21 2026 00:02:46 GMT+0000 (Coordinated Universal Time)

1 43111U 18004A 26263.58055512 .00002714 00000+0 13226-3 0 9993 2 43111 97.4690 322.2289 0000698 356.7138 3.4092 15.19192894481810
UTC large
Height (km)
Speed (km/s)
/
Latitude / Longitude
Inclination (degrees)
Orbital Period (minutes)
Azimuth
Elevation
Range (km)
Doppler Factor

Next 0 passes for location: London (51.5072 / 0.1276)

No passes found over London.
CARTOSAT-2F